Location: Austin
(30.3000°N, 97.7500°W)
Time: 23:13:45
(UTC-05:00)

Meteor 1-24 Rocket - Pass Details

Date: 08 April 2026
Orbit: 789 x 926 km, 81.2° (Epoch: 20 April)

Event Time Altitude Azimuth Distance (km) Brightness Sun altitude
Rises 21:30:10 0° 354° (N) 3,335 7.2 -20.7°
Reaches altitude 10° 21:32:32 10° 356° (N) 2,417 6.4 -21.2°
Maximum altitude 21:38:00 78° 82° (E) 860 3.5 -22.3°
Enters shadow 21:40:21 37° 163° (SSE) 1,303 4.3 -22.7°
